Location: Krakow
(50.0830°N, 19.9170°E)
Time: 05:32:38
(UTC+01:00)

Vanguard 2 - Pass Details

Date: 17 December 2023
Orbit: 553 x 2919 km, 32.9° (Epoch: 24 February)

Event Time Altitude Azimuth Distance (km) Brightness Sun altitude
Rises 19:27:04 0° 252° (WSW) 6,148 13.0 -35.3°
Reaches altitude 10° 19:31:08 10° 246° (WSW) 5,363 12.4 -35.9°
Maximum altitude 19:46:13 42° 184° (S) 3,720 10.8 -38.3°
Enters shadow 19:50:09 39° 158° (SSE) 3,858 10.7 -39.0°
